AT&T T-16

Last updated on Wed Oct 29 2025 00:02:50 GMT+0000 (Coordinated Universal Time)

1 44333U 19034A 25300.50659729 -.00000104 00000+0 00000+0 0 9991 2 44333 0.0322 72.1484 0000610 42.6488 2.8646 1.00270785 23305
UTC large
Height (km)
Speed (km/s)
/
Latitude / Longitude
Inclination (degrees)
Orbital Period (minutes)
Azimuth
Elevation
Range (km)
Doppler Factor

Next 0 passes for location: London (51.5072 / 0.1276)

Sorry there are no passes over London.